Location: Unspecified
(0.0000°N, 0.0000°E)
Time: 18:20:59
(UTC+01:00)

ARIANE 5 R/B - Visible Passes

Search period start: 07 February 2016 00:00
Search period end: 17 February 2016 00:00
Orbit: 580 x 35638 km, 6.8° (Epoch: 05 February)

Date Brightness Start Highest point End Pass type
(mag) Time Alt. Az. Time Alt. Az. Time Alt. Az.
07 Feb 8.2 01:28:21 66° ESE 01:28:21 66° ESE 11:04:46 10° E visible
07 Feb 5.7 22:07:56 10° W 22:40:01 - E 07:49:28 10° E visible
09 Feb 5.8 06:35:05 10° W 08:15:04 41° W 16:20:22 10° E visible
10 Feb 7.6 03:39:15 53° WSW 05:58:29 88° SSW 13:23:32 10° E visible
11 Feb 8.5 00:50:57 52° ESE 00:50:57 52° ESE 10:22:10 10° E visible
11 Feb 4.4 21:26:57 10° W 22:02:40 - E 21:31:00 62° S visible
12 Feb 11.7 02:14:38 10° E 05:31:34 28° E 06:59:23 10° E visible
13 Feb 6.2 05:50:17 12° W 07:33:18 50° W 15:39:23 10° E visible
14 Feb 8.0 03:02:01 68° WSW 03:25:08 82° SSE 12:42:09 10° E visible
15 Feb 7.5 00:13:46 40° ESE 00:13:46 40° ESE 09:39:04 10° E visible
15 Feb 4.1 20:45:54 10° W 20:49:30 60° S 20:52:20 33° ESE visible
16 Feb 11.8 02:39:15 10° E 04:50:49 20° E 06:03:35 10° E visible
